TimeEDT,TemperatureF,Dew PointF,Humidity,Sea Level PressureIn,VisibilityMPH,Wind Direction,Wind SpeedMPH,Gust SpeedMPH,PrecipitationIn,Events,Conditions,WindDirDegrees,DateUTC
12:08 AM,69.8,60.8,73,29.81,10.0,Variable,3.5,-,N/A,Thunderstorm,Overcast,0,2013-06-16 04:08:00
12:40 AM,66.2,60.8,83,29.82,1.8,WSW,4.6,-,0.10,Rain-Thunderstorm,Heavy Rain,240,2013-06-16 04:40:00
12:53 AM,64.9,62.1,90,29.82,1.8,West,5.8,-,0.20,Rain-Thunderstorm,Rain,260,2013-06-16 04:53:00
1:03 AM,64.4,62.6,94,29.83,2.0,West,3.5,-,0.06,Rain,Rain,260,2013-06-16 05:03:00
1:11 AM,64.4,62.6,94,29.83,2.5,NW,5.8,-,0.09,Rain,Rain,310,2013-06-16 05:11:00
1:21 AM,64.4,62.6,94,29.83,4.0,WNW,5.8,-,0.13,Rain,Rain,290,2013-06-16 05:21:00
1:33 AM,64.4,62.6,94,29.83,2.5,WNW,5.8,-,0.18,Rain,Rain,300,2013-06-16 05:33:00
1:53 AM,64.0,62.1,93,29.81,1.8,Calm,Calm,-,0.32,Rain,Rain,0,2013-06-16 05:53:00
2:05 AM,64.4,62.6,94,29.81,2.5,Calm,Calm,-,0.03,Rain,Rain,0,2013-06-16 06:05:00
2:16 AM,64.4,62.6,94,29.79,3.0,SE,3.5,-,0.05,Rain,Rain,140,2013-06-16 06:16:00
2:53 AM,64.0,62.1,93,29.73,7.0,Variable,3.5,-,0.08,Rain,Light Rain,0,2013-06-16 06:53:00
3:33 AM,64.4,62.6,94,29.75,10.0,Calm,Calm,-,0.01,,Mostly Cloudy,0,2013-06-16 07:33:00
3:53 AM,64.0,62.1,93,29.74,5.0,Calm,Calm,-,0.01,,Overcast,0,2013-06-16 07:53:00
4:24 AM,64.4,62.6,94,29.76,10.0,NW,3.5,-,N/A,,Overcast,310,2013-06-16 08:24:00
4:53 AM,64.0,62.1,93,29.76,10.0,WNW,13.8,19.6,N/A,,Overcast,290,2013-06-16 08:53:00
5:35 AM,64.4,62.6,94,29.78,10.0,WNW,6.9,-,N/A,,Overcast,290,2013-06-16 09:35:00
5:53 AM,63.0,61.0,93,29.78,9.0,WNW,9.2,-,N/A,,Overcast,300,2013-06-16 09:53:00
6:53 AM,61.0,59.0,93,29.78,5.0,NW,4.6,-,N/A,,Overcast,320,2013-06-16 10:53:00
7:02 AM,60.8,59.0,94,29.79,2.0,Calm,Calm,-,N/A,,Overcast,0,2013-06-16 11:02:00
7:42 AM,62.6,60.8,94,29.79,1.0,Calm,Calm,-,N/A,,Overcast,0,2013-06-16 11:42:00
7:53 AM,62.1,60.1,93,29.80,1.0,WSW,4.6,-,N/A,,Overcast,250,2013-06-16 11:53:00
8:24 AM,62.6,60.8,94,29.80,2.0,Calm,Calm,-,N/A,,Overcast,0,2013-06-16 12:24:00
8:48 AM,64.4,60.8,88,29.80,3.0,WSW,4.6,-,N/A,,Overcast,250,2013-06-16 12:48:00
8:53 AM,64.0,61.0,90,29.80,3.0,WSW,4.6,-,N/A,,Overcast,240,2013-06-16 12:53:00
9:13 AM,64.4,62.6,94,29.80,3.0,WSW,4.6,-,N/A,,Overcast,240,2013-06-16 13:13:00
9:53 AM,66.0,62.1,87,29.81,9.0,West,10.4,-,N/A,,Overcast,280,2013-06-16 13:53:00
10:27 AM,66.2,60.8,83,29.81,10.0,West,11.5,-,N/A,,Overcast,270,2013-06-16 14:27:00
10:53 AM,68.0,61.0,78,29.80,10.0,WSW,5.8,-,N/A,,Overcast,240,2013-06-16 14:53:00
11:30 AM,69.8,60.8,73,29.80,10.0,Variable,3.5,-,N/A,,Scattered Clouds,0,2013-06-16 15:30:00
11:53 AM,72.0,61.0,68,29.80,10.0,West,6.9,-,N/A,,Scattered Clouds,270,2013-06-16 15:53:00
12:53 PM,75.0,61.0,62,29.80,10.0,WSW,8.1,-,N/A,,Scattered Clouds,250,2013-06-16 16:53:00
1:53 PM,78.1,55.9,46,29.78,10.0,West,12.7,16.1,N/A,,Scattered Clouds,270,2013-06-16 17:53:00
2:53 PM,79.0,51.1,38,29.79,10.0,West,12.7,23.0,N/A,,Partly Cloudy,270,2013-06-16 18:53:00
3:53 PM,80.1,55.0,42,29.79,10.0,WSW,11.5,17.3,N/A,,Partly Cloudy,240,2013-06-16 19:53:00
4:53 PM,80.1,54.0,40,29.78,10.0,West,19.6,26.5,N/A,,Scattered Clouds,280,2013-06-16 20:53:00
5:53 PM,82.0,54.0,38,29.79,10.0,West,16.1,23.0,N/A,,Scattered Clouds,280,2013-06-16 21:53:00
6:53 PM,80.1,53.1,39,29.79,10.0,West,11.5,18.4,N/A,,Scattered Clouds,260,2013-06-16 22:53:00
7:53 PM,78.1,53.1,42,29.79,10.0,WSW,8.1,-,N/A,,Scattered Clouds,250,2013-06-16 23:53:00
8:53 PM,75.0,53.1,46,29.80,10.0,WSW,6.9,-,N/A,,Mostly Cloudy,250,2013-06-17 00:53:00
9:53 PM,70.0,50.0,49,29.82,10.0,West,4.6,-,N/A,,Mostly Cloudy,260,2013-06-17 01:53:00
10:53 PM,66.0,52.0,60,29.82,10.0,SW,5.8,-,N/A,,Clear,230,2013-06-17 02:53:00
11:53 PM,66.0,51.1,59,29.84,10.0,Variable,4.6,-,N/A,,Overcast,0,2013-06-17 03:53:00